SWN25Q CYYR-CYQX

Flight info

Callsign SWN25Q
Flight time 1h 2m
Altitude 37000
Route YQX
Aircraft B738/M-SDE2E3FGHIRWXY/LB1

Departure

Time 2026-05-07 15:39
Airport Goose Bay Airport (CYYR)

Arrival

Time 2026-05-07 16:41
Airport Gander International Airport (CYQX)
Time Latitude Longitude Altitude Speed Heading
2026-05-07 14:57 53.30940 -60.39903 143 ft 0 kts 223°
2026-05-07 15:27 53.30940 -60.39902 143 ft 2 kts 223°
2026-05-07 15:28 53.30951 -60.39887 142 ft 4 kts 217°
2026-05-07 15:28 53.30973 -60.39861 141 ft 4 kts 217°
2026-05-07 15:28 53.30990 -60.39835 140 ft 4 kts 267°
2026-05-07 15:28 53.30990 -60.39826 140 ft 1 kts 313°
2026-05-07 15:31 53.30991 -60.39827 139 ft 2 kts 313°
2026-05-07 15:31 53.31020 -60.39879 139 ft 10 kts 313°
2026-05-07 15:31 53.31073 -60.39973 142 ft 11 kts 313°
2026-05-07 15:31 53.31136 -60.40084 142 ft 15 kts 313°
2026-05-07 15:32 53.31207 -60.40211 147 ft 15 kts 314°
2026-05-07 15:32 53.31277 -60.40335 151 ft 15 kts 312°
2026-05-07 15:32 53.31349 -60.40467 153 ft 15 kts 313°
2026-05-07 15:32 53.31427 -60.40605 153 ft 18 kts 313°
2026-05-07 15:33 53.31514 -60.40761 154 ft 19 kts 311°
2026-05-07 15:33 53.31559 -60.40975 154 ft 21 kts 280°
2026-05-07 15:33 53.31585 -60.41212 158 ft 21 kts 280°
2026-05-07 15:33 53.31585 -60.41443 162 ft 20 kts 240°
2026-05-07 15:34 53.31499 -60.41655 162 ft 23 kts 236°
2026-05-07 15:34 53.31398 -60.41897 159 ft 27 kts 235°
2026-05-07 15:34 53.31297 -60.42135 157 ft 26 kts 236°
2026-05-07 15:34 53.31196 -60.42382 160 ft 26 kts 235°
2026-05-07 15:35 53.31093 -60.42631 161 ft 25 kts 234°
2026-05-07 15:35 53.30978 -60.42881 158 ft 25 kts 235°
2026-05-07 15:35 53.30880 -60.43115 155 ft 26 kts 235°
2026-05-07 15:35 53.30774 -60.43367 157 ft 26 kts 235°
2026-05-07 15:36 53.30654 -60.43582 159 ft 25 kts 217°
2026-05-07 15:36 53.30545 -60.43790 158 ft 24 kts 235°
2026-05-07 15:36 53.30449 -60.44021 156 ft 23 kts 235°
2026-05-07 15:36 53.30357 -60.44239 156 ft 23 kts 235°
2026-05-07 15:37 53.30276 -60.44449 156 ft 20 kts 256°
2026-05-07 15:37 53.30339 -60.44627 158 ft 17 kts 323°
2026-05-07 15:37 53.30439 -60.44678 157 ft 16 kts 35°
2026-05-07 15:37 53.30454 -60.44652 157 ft 0 kts 49°
2026-05-07 15:38 53.30463 -60.44633 157 ft 16 kts 52°
2026-05-07 15:38 53.30664 -60.44146 156 ft 85 kts 55°
2026-05-07 15:38 53.31111 -60.43076 158 ft 140 kts 54°
2026-05-07 15:39 53.31714 -60.41592 524 ft 162 kts 54°
2026-05-07 15:39 53.32335 -60.40125 1539 ft 151 kts 61°
2026-05-07 15:39 53.32964 -60.38581 2072 ft 172 kts 64°
2026-05-07 15:39 53.33699 -60.36752 2367 ft 204 kts 63°
2026-05-07 15:40 53.34548 -60.34653 2563 ft 232 kts 63°
2026-05-07 15:40 53.35493 -60.32337 2965 ft 247 kts 63°
2026-05-07 15:40 53.36508 -60.29867 3389 ft 269 kts 63°
2026-05-07 15:40 53.37597 -60.27210 4010 ft 283 kts 64°
2026-05-07 15:41 53.38743 -60.24424 4683 ft 296 kts 64°
2026-05-07 15:41 53.39918 -60.21583 5538 ft 299 kts 64°
2026-05-07 15:41 53.41116 -60.18682 6297 ft 306 kts 65°
2026-05-07 15:41 53.42318 -60.15774 7152 ft 307 kts 65°
2026-05-07 15:42 53.43544 -60.12792 7893 ft 314 kts 65°
2026-05-07 15:42 53.44790 -60.09754 8682 ft 318 kts 64°
2026-05-07 15:42 53.46052 -60.06671 9490 ft 323 kts 64°
2026-05-07 15:42 53.47337 -60.03528 10089 ft 334 kts 64°
2026-05-07 15:43 53.48694 -60.00183 10283 ft 359 kts 63°
2026-05-07 15:43 53.50000 -59.96501 10440 ft 371 kts 77°
2026-05-07 15:43 53.50373 -59.92276 10608 ft 365 kts 104°
2026-05-07 15:43 53.49643 -59.88283 11001 ft 356 kts 125°
2026-05-07 15:44 53.48273 -59.84884 11584 ft 348 kts 140°
2026-05-07 15:44 53.46483 -59.82192 12275 ft 346 kts 147°
2026-05-07 15:44 53.44594 -59.79632 12922 ft 351 kts 147°
2026-05-07 15:44 53.42667 -59.77079 13561 ft 355 kts 148°
2026-05-07 15:45 53.40735 -59.74530 14139 ft 360 kts 148°
2026-05-07 15:45 53.38759 -59.71913 14731 ft 364 kts 148°
2026-05-07 15:45 53.36817 -59.69127 15397 ft 369 kts 145°
2026-05-07 15:45 53.34882 -59.66454 15964 ft 372 kts 147°
2026-05-07 15:46 53.30764 -59.61074 17213 ft 380 kts 147°
2026-05-07 15:46 53.28671 -59.58324 17852 ft 385 kts 147°
2026-05-07 15:46 53.26558 -59.55527 18384 ft 389 kts 147°
2026-05-07 15:47 53.24432 -59.52698 18967 ft 392 kts 147°
2026-05-07 15:47 53.22294 -59.49847 19533 ft 394 kts 147°
2026-05-07 15:47 53.20147 -59.46985 20020 ft 397 kts 147°
2026-05-07 15:47 53.17977 -59.44090 20449 ft 402 kts 147°
2026-05-07 15:48 53.15785 -59.41166 20922 ft 405 kts 147°
2026-05-07 15:48 53.13580 -59.38226 21456 ft 407 kts 147°
2026-05-07 15:48 53.11364 -59.35274 21941 ft 409 kts 147°
2026-05-07 15:48 53.09131 -59.32305 22397 ft 412 kts 147°
2026-05-07 15:49 53.06878 -59.29316 22861 ft 415 kts 147°
2026-05-07 15:49 53.04611 -59.26312 23330 ft 418 kts 147°
2026-05-07 15:49 53.02331 -59.23295 23742 ft 421 kts 147°
2026-05-07 15:49 53.00033 -59.20258 24149 ft 422 kts 147°
2026-05-07 15:50 52.98506 -59.18242 24422 ft 423 kts 147°
2026-05-07 15:50 52.95447 -59.14210 24875 ft 426 kts 147°
2026-05-07 15:50 52.93119 -59.11147 25203 ft 429 kts 147°
2026-05-07 15:50 52.90779 -59.08072 25580 ft 430 kts 147°
2026-05-07 15:51 52.88429 -59.04977 25901 ft 432 kts 147°
2026-05-07 15:51 52.86842 -59.02888 26155 ft 432 kts 147°
2026-05-07 15:51 52.84506 -58.99830 26529 ft 433 kts 147°
2026-05-07 15:51 52.82138 -58.96740 26869 ft 435 kts 147°
2026-05-07 15:52 52.79758 -58.93640 27183 ft 436 kts 147°
2026-05-07 15:52 52.77374 -58.90536 27596 ft 435 kts 147°
2026-05-07 15:52 52.75005 -58.87452 28092 ft 432 kts 147°
2026-05-07 15:52 52.72650 -58.84388 28495 ft 431 kts 147°
2026-05-07 15:53 52.70286 -58.81320 28798 ft 433 kts 147°
2026-05-07 15:53 52.67920 -58.78256 29234 ft 431 kts 147°
2026-05-07 15:53 52.65568 -58.75211 29756 ft 428 kts 147°
2026-05-07 15:53 52.63229 -58.72186 30202 ft 426 kts 148°
2026-05-07 15:54 52.60895 -58.69173 30582 ft 424 kts 148°
2026-05-07 15:54 52.58623 -58.66245 30959 ft 424 kts 148°
2026-05-07 15:54 52.56303 -58.63258 31542 ft 416 kts 148°
2026-05-07 15:54 52.54042 -58.60346 32095 ft 411 kts 149°
2026-05-07 15:55 52.51789 -58.57454 32455 ft 410 kts 149°
2026-05-07 15:55 52.49533 -58.54565 32671 ft 412 kts 149°
2026-05-07 15:55 52.47261 -58.51665 32838 ft 415 kts 149°
2026-05-07 15:55 52.44980 -58.48754 33190 ft 413 kts 149°
2026-05-07 15:56 52.42722 -58.45869 33644 ft 410 kts 149°
2026-05-07 15:56 52.40478 -58.43004 33997 ft 408 kts 149°
2026-05-07 15:56 52.38231 -58.40145 34151 ft 411 kts 149°
2026-05-07 15:56 52.35962 -58.37265 34301 ft 414 kts 149°
2026-05-07 15:57 52.33718 -58.34418 34543 ft 414 kts 149°
2026-05-07 15:57 52.31408 -58.31490 34807 ft 415 kts 149°
2026-05-07 15:57 52.29154 -58.28636 35007 ft 417 kts 149°
2026-05-07 15:57 52.26859 -58.25734 35185 ft 418 kts 149°
2026-05-07 15:58 52.24554 -58.22822 35388 ft 419 kts 149°
2026-05-07 15:58 52.22252 -58.19919 35583 ft 420 kts 149°
2026-05-07 15:58 52.19931 -58.16995 35757 ft 421 kts 149°
2026-05-07 15:58 52.17605 -58.14069 35929 ft 423 kts 149°
2026-05-07 15:59 52.15271 -58.11137 36095 ft 424 kts 149°
2026-05-07 15:59 52.12935 -58.08207 36316 ft 425 kts 149°
2026-05-07 15:59 52.10597 -58.05278 36534 ft 425 kts 149°
2026-05-07 15:59 52.08248 -58.02337 36682 ft 426 kts 149°
2026-05-07 16:00 52.05890 -57.99393 36765 ft 429 kts 149°
2026-05-07 16:00 52.01147 -57.93479 36776 ft 429 kts 149°
2026-05-07 16:01 51.96457 -57.87641 36786 ft 427 kts 149°
2026-05-07 16:01 51.91741 -57.81793 36770 ft 425 kts 150°
2026-05-07 16:02 51.87068 -57.76010 36803 ft 422 kts 150°
2026-05-07 16:02 51.82410 -57.70264 36758 ft 420 kts 150°
2026-05-07 16:03 51.77758 -57.64545 36787 ft 420 kts 150°
2026-05-07 16:03 51.73151 -57.58893 36809 ft 419 kts 150°
2026-05-07 16:04 51.68497 -57.53206 36831 ft 420 kts 150°
2026-05-07 16:04 51.63826 -57.47509 36828 ft 422 kts 150°
2026-05-07 16:05 51.59148 -57.41812 36794 ft 423 kts 150°
2026-05-07 16:05 51.55462 -57.37334 36819 ft 423 kts 150°
2026-05-07 16:06 51.51760 -57.32846 36817 ft 424 kts 150°
2026-05-07 16:06 51.47489 -57.27682 36846 ft 424 kts 150°
2026-05-07 16:07 51.43575 -57.22961 36851 ft 424 kts 150°
2026-05-07 16:07 51.39822 -57.18444 36857 ft 424 kts 150°
2026-05-07 16:08 51.35640 -57.13419 36848 ft 423 kts 151°
2026-05-07 16:08 51.30946 -57.07796 36850 ft 423 kts 151°
2026-05-07 16:09 51.26238 -57.02171 36860 ft 423 kts 151°
2026-05-07 16:09 51.21524 -56.96554 36859 ft 422 kts 151°
2026-05-07 16:10 51.16816 -56.90958 36866 ft 422 kts 151°
2026-05-07 16:10 51.12105 -56.85374 36859 ft 422 kts 152°
2026-05-07 16:11 51.07418 -56.79833 36864 ft 423 kts 152°
2026-05-07 16:11 51.02684 -56.74250 36875 ft 424 kts 152°
2026-05-07 16:12 50.97945 -56.68676 36886 ft 424 kts 152°
2026-05-07 16:12 50.93196 -56.63105 36898 ft 425 kts 152°
2026-05-07 16:13 50.88436 -56.57533 36894 ft 425 kts 152°
2026-05-07 16:13 50.83677 -56.51978 36909 ft 425 kts 152°
2026-05-07 16:14 50.78909 -56.46427 36920 ft 425 kts 152°
2026-05-07 16:14 50.74140 -56.40889 36922 ft 425 kts 152°
2026-05-07 16:15 50.69367 -56.35362 36905 ft 426 kts 152°
2026-05-07 16:15 50.64624 -56.29883 36931 ft 425 kts 152°
2026-05-07 16:16 50.59847 -56.24379 36933 ft 425 kts 152°
2026-05-07 16:16 50.55066 -56.18884 36942 ft 425 kts 152°
2026-05-07 16:17 50.50285 -56.13404 36945 ft 425 kts 152°
2026-05-07 16:17 50.45642 -56.08095 36936 ft 425 kts 152°
2026-05-07 16:18 50.41846 -56.03764 36898 ft 426 kts 152°
2026-05-07 16:18 50.39873 -56.01521 36438 ft 430 kts 152°
2026-05-07 16:18 50.37952 -55.99333 35990 ft 426 kts 152°
2026-05-07 16:18 50.35560 -55.96610 35379 ft 424 kts 153°
2026-05-07 16:19 50.33536 -55.94311 34795 ft 425 kts 152°
2026-05-07 16:19 50.31284 -55.91759 34153 ft 425 kts 152°
2026-05-07 16:19 50.29200 -55.89399 33477 ft 426 kts 152°
2026-05-07 16:19 50.26811 -55.86699 32685 ft 427 kts 152°
2026-05-07 16:20 50.24404 -55.83980 31880 ft 427 kts 152°
2026-05-07 16:20 50.21995 -55.81262 31131 ft 427 kts 152°
2026-05-07 16:20 50.19579 -55.78541 30329 ft 429 kts 152°
2026-05-07 16:20 50.17152 -55.75811 29404 ft 431 kts 151°
2026-05-07 16:21 50.14709 -55.73066 28439 ft 432 kts 151°
2026-05-07 16:21 50.12264 -55.70322 27487 ft 434 kts 151°
2026-05-07 16:21 50.09810 -55.67571 26478 ft 436 kts 151°
2026-05-07 16:21 50.07344 -55.64810 25631 ft 436 kts 150°
2026-05-07 16:22 50.04895 -55.62066 24927 ft 432 kts 150°
2026-05-07 16:22 50.02499 -55.59383 24224 ft 428 kts 150°
2026-05-07 16:22 50.00058 -55.56662 23474 ft 436 kts 150°
2026-05-07 16:22 49.97580 -55.53908 22635 ft 439 kts 150°
2026-05-07 16:23 49.95111 -55.51158 21864 ft 432 kts 150°
2026-05-07 16:23 49.92683 -55.48453 21130 ft 426 kts 150°
2026-05-07 16:23 49.90291 -55.45792 20413 ft 420 kts 151°
2026-05-07 16:23 49.87927 -55.43166 19707 ft 415 kts 151°
2026-05-07 16:24 49.85590 -55.40577 19018 ft 411 kts 151°
2026-05-07 16:24 49.83283 -55.38027 18324 ft 407 kts 152°
2026-05-07 16:24 49.80984 -55.35489 17528 ft 403 kts 152°
2026-05-07 16:24 49.78720 -55.32991 16857 ft 395 kts 152°
2026-05-07 16:25 49.76504 -55.30546 16183 ft 388 kts 152°
2026-05-07 16:25 49.74321 -55.28143 15487 ft 383 kts 152°
2026-05-07 16:25 49.72194 -55.25805 14810 ft 378 kts 152°
2026-05-07 16:25 49.70062 -55.23466 14145 ft 374 kts 152°
2026-05-07 16:26 49.67954 -55.21156 13454 ft 369 kts 151°
2026-05-07 16:26 49.65873 -55.18877 12752 ft 365 kts 151°
2026-05-07 16:26 49.63810 -55.16620 12116 ft 360 kts 151°
2026-05-07 16:26 49.62433 -55.15115 11677 ft 358 kts 150°
2026-05-07 16:27 49.59767 -55.12202 11020 ft 348 kts 151°
2026-05-07 16:27 49.57840 -55.10091 10883 ft 332 kts 151°
2026-05-07 16:27 49.55989 -55.08067 10746 ft 322 kts 151°
2026-05-07 16:27 49.54185 -55.06100 10635 ft 314 kts 151°
2026-05-07 16:28 49.52420 -55.04182 10513 ft 307 kts 152°
2026-05-07 16:28 49.50702 -55.02313 10381 ft 296 kts 152°
2026-05-07 16:28 49.49047 -55.00514 10255 ft 285 kts 152°
2026-05-07 16:28 49.47452 -54.98782 10152 ft 275 kts 152°
2026-05-07 16:29 49.45916 -54.97115 10051 ft 266 kts 152°
2026-05-07 16:29 49.44447 -54.95524 9925 ft 258 kts 153°
2026-05-07 16:29 49.42977 -54.93937 9622 ft 257 kts 153°
2026-05-07 16:29 49.41516 -54.92361 9343 ft 256 kts 153°
2026-05-07 16:30 49.40067 -54.90798 9057 ft 254 kts 153°
2026-05-07 16:30 49.38629 -54.89247 8781 ft 252 kts 153°
2026-05-07 16:30 49.37202 -54.87707 8490 ft 249 kts 153°
2026-05-07 16:30 49.35789 -54.86184 8234 ft 247 kts 153°
2026-05-07 16:31 49.34389 -54.84675 7964 ft 245 kts 153°
2026-05-07 16:31 49.32998 -54.83178 7697 ft 244 kts 153°
2026-05-07 16:31 49.31617 -54.81691 7429 ft 242 kts 153°
2026-05-07 16:31 49.30244 -54.80215 7163 ft 240 kts 153°
2026-05-07 16:32 49.28899 -54.78770 6920 ft 239 kts 153°
2026-05-07 16:32 49.27562 -54.77333 6657 ft 237 kts 153°
2026-05-07 16:32 49.26218 -54.75889 6395 ft 236 kts 153°
2026-05-07 16:32 49.24878 -54.74451 6123 ft 236 kts 153°
2026-05-07 16:33 49.23532 -54.73009 5834 ft 236 kts 153°
2026-05-07 16:33 49.22186 -54.71567 5563 ft 234 kts 153°
2026-05-07 16:33 49.20870 -54.70154 5349 ft 228 kts 153°
2026-05-07 16:33 49.19598 -54.68788 5267 ft 218 kts 154°
2026-05-07 16:34 49.18398 -54.67499 5192 ft 203 kts 154°
2026-05-07 16:34 49.17290 -54.66308 5089 ft 186 kts 154°
2026-05-07 16:34 49.16277 -54.65217 4970 ft 171 kts 155°
2026-05-07 16:34 49.15311 -54.64188 4959 ft 169 kts 156°
2026-05-07 16:35 49.14418 -54.62965 4817 ft 188 kts 129°
2026-05-07 16:35 49.14109 -54.60952 4704 ft 202 kts 111°
2026-05-07 16:35 49.13854 -54.58830 4489 ft 204 kts 114°
2026-05-07 16:35 49.13588 -54.56709 4270 ft 201 kts 113°
2026-05-07 16:36 49.13333 -54.54640 4057 ft 196 kts 114°
2026-05-07 16:36 49.12981 -54.52721 3967 ft 176 kts 136°
2026-05-07 16:36 49.12145 -54.51677 3833 ft 147 kts 167°
2026-05-07 16:36 49.11172 -54.51377 3644 ft 141 kts 187°
2026-05-07 16:37 49.10198 -54.51620 3483 ft 143 kts 191°
2026-05-07 16:37 49.09212 -54.51879 3298 ft 144 kts 192°
2026-05-07 16:37 49.08235 -54.52145 3111 ft 142 kts 192°
2026-05-07 16:37 49.07253 -54.52417 2934 ft 144 kts 192°
2026-05-07 16:38 49.06256 -54.52690 2767 ft 147 kts 192°
2026-05-07 16:38 49.05211 -54.53034 2521 ft 159 kts 195°
2026-05-07 16:38 49.04145 -54.53420 2330 ft 153 kts 189°
2026-05-07 16:38 49.03128 -54.53622 2171 ft 143 kts 190°
2026-05-07 16:39 49.02144 -54.53829 1899 ft 142 kts 184°
2026-05-07 16:39 49.01196 -54.54071 1716 ft 136 kts 192°
2026-05-07 16:39 49.00291 -54.54350 1511 ft 129 kts 192°
2026-05-07 16:39 48.99431 -54.54630 1342 ft 124 kts 191°
2026-05-07 16:40 48.98573 -54.54890 1167 ft 126 kts 191°
2026-05-07 16:40 48.97714 -54.55154 1014 ft 127 kts 190°
2026-05-07 16:40 48.96834 -54.55404 833 ft 135 kts 189°
2026-05-07 16:40 48.96223 -54.55585 733 ft 135 kts 188°
2026-05-07 16:41 48.95296 -54.55863 602 ft 133 kts 186°
2026-05-07 16:41 48.94374 -54.56119 476 ft 132 kts 186°
2026-05-07 16:41 48.93535 -54.56350 448 ft 95 kts 193°
2026-05-07 16:41 48.93274 -54.56447 451 ft 12 kts 213°
2026-05-07 16:42 48.93260 -54.56580 448 ft 14 kts 278°
2026-05-07 16:42 48.93277 -54.56703 448 ft 11 kts 294°
2026-05-07 16:42 48.93338 -54.56748 448 ft 10 kts
2026-05-07 16:42 48.93410 -54.56729 449 ft 11 kts 10°
2026-05-07 16:43 48.93496 -54.56704 451 ft 15 kts 11°
2026-05-07 16:43 48.93621 -54.56668 452 ft 22 kts
2026-05-07 16:43 48.93790 -54.56623 455 ft 28 kts 11°
2026-05-07 16:43 48.93978 -54.56576 457 ft 25 kts 359°
2026-05-07 16:44 48.94124 -54.56654 459 ft 24 kts 332°
2026-05-07 16:44 48.94284 -54.56779 462 ft 29 kts 332°
2026-05-07 16:44 48.94443 -54.56903 463 ft 25 kts 333°
2026-05-07 16:44 48.94516 -54.56986 464 ft 10 kts 319°
2026-05-07 16:45 48.94544 -54.57061 465 ft 7 kts 272°
2026-05-07 16:45 48.94535 -54.57119 466 ft 2 kts 264°
2026-05-07 16:45 48.94542 -54.57137 466 ft 2 kts 320°
2026-05-07 16:45 48.94566 -54.57128 464 ft 6 kts 17°
2026-05-07 16:46 48.94601 -54.57111 466 ft 4 kts 19°
2026-05-07 16:46 48.94603 -54.57109 466 ft 0 kts 19°